Regional Weather Roundup
Issued by NWS

Home | Current Version | Previous Version | Text Only | Print | Product List | Glossary Off
Versions: 1 2 3 4 5 6 7 8 9 10 11 12 13 14 15 16 17 18 19 20 21 22 23 24 25 26 27 28

000
ASUS45 KPSR 220610
RWRAZ

ARIZONA HOURLY REGIONAL WEATHER ROUNDUP
NATIONAL WEATHER SERVICE PHOENIX AZ
1100 PM MST SAT JAN 21 2017

NOTE: FAIR INDICATES FEW OR NO CLOUDS BELOW 12,000 FEET WITH NO
SIGNIFICANT WEATHER AND/OR OBSTRUCTIONS TO VISIBILITY.

AZZ001>003-036-220700-
NORTHWEST ARIZONA

CITY           SKY/WX    TMP DP  RH WIND       PRES   REMARKS
BULLHEAD CITY  MOCLDY    50  39  66 S7        30.05R
KINGMAN        PTCLDY    36  20  52 SE12      30.05R WCI  28
6HR MIN TEMP:  35; 6HR MAX TEMP:  47;

$$

AZZ004>008-015-016-018-220700-
NORTH CENTRAL ARIZONA

CITY           SKY/WX    TMP DP  RH WIND       PRES   REMARKS
GRAND CANYON   PTCLDY     8   7  95 CALM      30.04R
6HR MIN TEMP:   8; 6HR MAX TEMP:  31;

WILLIAMS       PTCLDY    23  21  93 SW5       30.04R WCI  17
PRESCOTT       CLEAR     31  27  85 SE8       30.07R WCI  23
6HR MIN TEMP:  30; 6HR MAX TEMP:  38;

FLAGSTAFF      PTCLDY    19  17  92 CALM      30.03R
6HR MIN TEMP:  15; 6HR MAX TEMP:  29;

PAYSON         PTCLDY    32  30  93 E5        30.11R WCI  27
PAGE           CLEAR     35  22  58 CALM      30.00R
6HR MIN TEMP:  35; 6HR MAX TEMP:  45;

$$

AZZ009>014-017-220700-
NORTHEAST ARIZONA

CITY           SKY/WX    TMP DP  RH WIND       PRES   REMARKS
WINSLOW        CLEAR     32  26  78 W8        30.05R WCI  25
6HR MIN TEMP:  30; 6HR MAX TEMP:  41;

SAINT JOHNS    CLEAR     29  23  78 W10       30.02R WCI  20
6HR MIN TEMP:  29; 6HR MAX TEMP:  38;

SHOW LOW       LGT RAIN  25  23  93 S14       30.06R WCI  13
$$

AZZ023-220700-
GREATER PHOENIX AREA

CITY           SKY/WX    TMP DP  RH WIND       PRES   REMARKS
PHOENIX        CLEAR     48  37  65 E7        30.08R
6HR MIN TEMP:  48; 6HR MAX TEMP:  59;

BUCKEYE        CLEAR     43  43 100 E5        30.09S
LUKE AFB       CLEAR     45  40  83 NE3       30.08R
6HR MIN TEMP:  45; 6HR MAX TEMP:  59;

DEER VALLEY    CLEAR     46  36  68 E9        30.08R
6HR MIN TEMP:  43; 6HR MAX TEMP:  56;

SCOTTSDALE     CLEAR     44  37  76 NE3       30.10R
6HR MIN TEMP:  44; 6HR MAX TEMP:  57;

MESA-GATEWAY   PTCLDY    43  39  87 E8        30.11R
$$

AZZ027-028-220700-
SOUTHWEST MARICOPA COUNTY AND PINAL COUNTY

CITY           SKY/WX    TMP DP  RH WIND       PRES   REMARKS
CASA GRANDE    CLEAR     42  38  85 E5        30.12R
6HR MIN TEMP:  42; 6HR MAX TEMP:  56;

GILA BEND      FAIR      47  40  77 SE10      30.09R
6HR MIN TEMP:  47; 6HR MAX TEMP:  59;

$$

AZZ503-504-507>509-220700-
SOUTHEAST ARIZONA

CITY           SKY/WX    TMP DP  RH WIND       PRES   REMARKS
TUCSON         CLEAR     42  33  70 S5        30.15R
6HR MIN TEMP:  42; 6HR MAX TEMP:  55;

DAVIS-MONTHAN  PTCLDY    39  34  80 S7        30.14R WCI  34
6HR MIN TEMP:  39; 6HR MAX TEMP:  52;

NOGALES        CLEAR     34  28  79 CALM      30.13R
6HR MIN TEMP:  33; 6HR MAX TEMP:  49;

SIERRA VISTA   CLEAR     33  26  76 W3        30.13R
6HR MIN TEMP:  32; 6HR MAX TEMP:  44;

DOUGLAS        CLEAR     35  27  72 N10       30.13R WCI  27
6HR MIN TEMP:  32; 6HR MAX TEMP:  49;

SAFFORD        CLEAR     42  33  70 NW9       30.08R
6HR MIN TEMP:  41; 6HR MAX TEMP:  46;

$$

AZZ020-021-025-026-031-220700-
SOUTHWEST ARIZONA

CITY           SKY/WX    TMP DP  RH WIND       PRES   REMARKS
YUMA           CLEAR     50  42  74 SE3       30.09R
6HR MIN TEMP:  49; 6HR MAX TEMP:  63;

$$

CAZ031-033-041-043-047-048-061-220700-
SOUTHERN CALIFORNIA

CITY           SKY/WX    TMP DP  RH WIND       PRES   REMARKS
DOWNTOWN L.A.  MOCLDY    56  47  71 CALM      30.10R
6HR MIN TEMP:  56; 6HR MAX TEMP:  61;

L.A. AIRPORT   MOCLDY    56  47  71 S3        30.10R
6HR MIN TEMP:  56; 6HR MAX TEMP:  57;

SAN DIEGO      MOCLDY    55  44  66 E7        30.15S
6HR MIN TEMP:  54; 6HR MAX TEMP:  60;

BURBANK        MOCLDY    52  45  77 SE6       30.09S
6HR MIN TEMP:  52; 6HR MAX TEMP:  57;

ONTARIO        MOCLDY    49  46  90 CALM      30.10S
6HR MIN TEMP:  49; 6HR MAX TEMP:  56;

RIVERSIDE      MOCLDY    48  45  89 CALM      30.11S
6HR MIN TEMP:  48; 6HR MAX TEMP:  57;

PALM SPRINGS   PTCLDY    52  42  69 SW5       30.08R
6HR MIN TEMP:  52; 6HR MAX TEMP:  62;

EL CENTRO NAS  CLEAR     50  39  66 NW12      30.09R
6HR MIN TEMP:  49; 6HR MAX TEMP:  62;

IMPERIAL       PTCLDY    52  40  63 NW5       30.07R
6HR MIN TEMP:  50; 6HR MAX TEMP:  62;

BLYTHE         PTCLDY    52  43  71 SW3       30.07R
6HR MIN TEMP:  50; 6HR MAX TEMP:  63;

NEEDLES        MOCLDY    53  36  52 SW6       30.05R
6HR MIN TEMP:  51; 6HR MAX TEMP:  63;

$$

NVZ020-UTZ003-220700-
SOUTHERN NEVADA-UTAH

CITY           SKY/WX    TMP DP  RH WIND       PRES   REMARKS
LAS VEGAS      CLOUDY    47  32  56 S8        29.99R
6HR MIN TEMP:  47; 6HR MAX TEMP:  55;

SALT LAKE CITY MOCLDY    32  27  81 SE9       29.93R WCI  24
6HR MIN TEMP:  29; 6HR MAX TEMP:  35;

$$

NMZ009-TXZ055-220700-
NEW MEXICO-WEST TEXAS

CITY           SKY/WX    TMP DP  RH WIND       PRES   REMARKS
ALBUQUERQUE    CLOUDY    39  22  50 NW9       29.88R WCI  33
6HR MIN TEMP:  38; 6HR MAX TEMP:  40;

EL PASO        CLEAR     42  23  46 W28G41    29.94R
6HR MIN TEMP:  42; 6HR MAX TEMP:  47;

$$


........................KEY........................
SKY/WX - SKY CONDITION/WEATHER
TMP    - TEMPERATURE IN FAHRENHEIT
DP     - DEW POINT IN FAHRENHEIT
RH     - RELATIVE HUMIDITY IN PERCENT
WIND   - DIRECTION AND SPEED IN MILES PER HOUR (MPH)
VRB    - VARIABLE WIND DIRECTION
PRES   - MEAN SEA LEVEL PRESSURE IN INCHES OF MERCURY
         F - FALLING PRESSURE   R - RISING PRESSURE
         S - STEADY PRESSURE
VSB    - VISIBILITY IN MILES
HX     - HEAT INDEX IN FAHRENHEIT
WCI    - WIND CHILL INDEX IN FAHRENHEIT
TC     - TEMPERATURE IN CELSIUS WHICH IS ALSO KNOWN AS
         TEMPERATURE IN CENTIGRADE
AFB    - AIR FORCE BASE
         LUKE AFB IS LUKE AIR FORCE BASE
         DAVIS-MONTHAN IS DAVIS-MONTHAN AIR FORCE BASE
NAS    - NAVAL AIR STATION
         EL CENTRO NAS IS EL CENTRO NAVAL AIR STATION
N/A    - NOT AVAILABLE





USA.gov is the U.S. government's official web portal to all federal, state and local government web resources and services.